Location: Zentrum-West, Leipzig, Deutschland
(51.3390°N, 12.3701°E)
Time: 02:43:25
(UTC+01:00)

ISS - Visible Passes

Search period start: 22 January 2019 00:00
Search period end: 01 February 2019 00:00
Orbit: 404 x 410 km, 51.6° (Epoch: 22 January)

Date Brightness Start Highest point End Pass type
(mag) Time Alt. Az. Time Alt. Az. Time Alt. Az.
23 Jan -1.6 18:39:38 10° S 18:41:05 16° SSE 18:41:05 16° SSE visible
24 Jan -1.3 17:50:02 10° SSE 17:50:44 10° SE 17:51:24 10° SE visible
24 Jan -1.6 19:23:27 10° SW 19:24:48 21° SW 19:24:48 21° SW visible
25 Jan -2.7 18:32:26 10° SSW 18:35:21 29° SSE 18:35:43 28° SE visible
25 Jan -0.3 20:08:20 10° WSW 20:08:26 11° WSW 20:08:26 11° WSW visible
26 Jan -2.0 17:41:40 10° SSW 17:44:10 20° SE 17:46:33 11° E visible
26 Jan -2.5 19:17:01 10° WSW 19:19:16 39° SW 19:19:16 39° SW visible
27 Jan -3.4 18:25:46 10° SW 18:28:58 49° SSE 18:30:03 33° ESE visible
27 Jan -0.6 20:02:08 10° W 20:02:46 15° W 20:02:46 15° W visible
28 Jan -2.7 17:34:38 10° SW 17:37:41 35° SSE 17:40:44 10° E visible
28 Jan -3.3 19:10:43 10° W 19:13:30 60° W 19:13:30 60° W visible
29 Jan -3.8 18:19:20 10° WSW 18:22:38 75° SSE 18:24:13 28° E visible
29 Jan -1.0 19:55:53 10° W 19:56:55 19° W 19:56:55 19° W visible
30 Jan -3.4 17:28:01 10° WSW 17:31:15 57° SSE 17:34:32 10° E visible
30 Jan -3.8 19:04:27 10° W 19:07:36 78° NW 19:07:36 78° NW visible
31 Jan -3.9 18:13:01 10° W 18:16:19 87° N 18:18:17 23° E visible
31 Jan -1.3 19:49:35 10° W 19:50:59 23° W 19:50:59 23° W visible
